FENGYUN 1C DEB

Satellite information

Favourite Embed

Satellite Type and Status

DEBRISIN ORBIT

Key statistics

Satellite FENGYUN 1C DEB at a glance.

Uptime

9609

Days in orbit

Revolutions

≈ 14.1

Per day

Orbit

SSO

Sun Synchronous Orbit

Inclination

98.2

Latest

Satellite identification and parameters

Extended collection of information and parameters for FENGYUN 1C DEB.

Object identification

Identified? True

Debris? True

Object name: FENGYUN 1C DEB

International designator: 1999-025DSH

Object number (NORAD): 36160

Object ID (CCSDS): 36160

Country: PEOPLES REPUBLIC OF CHINA (PRC)

Current information (Y/N): Y

RCS size: SMALL

Orbital parameters

Period: 101.907 minutes

Inclination: 98.1558 deg

SMA: 7227.06 km

Apoapsis: 947.139 km

Periapsis: 750.711 km

RAAN: 82.7559 deg

Eccentricy: 0.0135898

Argument of periapsis: 127.9653 deg

Mean anomaly: 233.389 deg

Mean motion: 14.13058977 rev/day

Mean motion (dot): 0.00000334 rev/day2

B* drag term: 0.00018221 1/REarth

Two-line elements (TLE)

Creation date: Aug. 19, 2025, 2:51 a.m.

Reference frame: TEME

Reference center: EARTH

Epoch: Aug. 18, 2025, 7:54 p.m. UTC

TLE line 0: 0 FENGYUN 1C DEB

TLE line 1: 1 36160U 99025DSH 25230.82921955 .00000334 00000-0 18221-3 0 9991

TLE line 2: 2 36160 98.1558 82.7559 0135898 127.9653 233.3890 14.13058977584153

Live tracking on map

Real-time ground track for satellite FENGYUN 1C DEB.

In-orbit conjunctions

A list of the most updated potential collisions computed for object FENGYUN 1C DEB.

Target Orbit TCA Probability of collision Miss distance Type
CZ-6A DEB LEO 2025-06-15 12:21:49 0.0001203714 296.0 (m) DEBRIS

Associated space launch

Chinese polar orbiting meteorological satellite

FENGYUN 1C DEB was lifted into orbit during the mission ‘Long March 4B | Feng Yun 1C’, on board a Long March 4B space rocket.

The launch took place on May 10, 1999, 1:33 a.m. from Launch Complex 7.

For more information about the launch, click the button.

Launch to space Long March 4B | Feng Yun 1C
Long March 4B | Feng Yun 1C

Agency: N/A

Status: Launch Successful

Launch date: May 10, 1999, 1:33 a.m. UTC

Rocket: Long March 4B

Launch pad: Launch Complex 7

Location: Taiyuan Satellite Launch Center, People's Republic of China

...

Latest news about this satellite

There are no fresh news available about this satellite. Check back as we update our databases every day.


Newsletter sign-up

Weekly statistics, charts and insights to help you stay on top of the space industry.